CZ-4B DEB, 37581

Orbit data source: Space-Track

CZ-4B DEB, 37581 is space debris in SSO originally from a launch on Mon, 10 May 1999 UTC launched from the Taiyaun Space Center, China (TSC). Debris objects in space refer to the collection of defunct objects orbiting the Earth. Examples of debris include non-operational satellites, rocket bodies, and fragments generated from explosions, collisions, or faulty payload assembly.

Loading next visibility...
Identifier
37581, 1999-025EKE
Orbit
SSO
Country
Flag of CNCN / PRC
Related business
Manufacturer
Unknown
Mission
Spacecraft
Bus & Motor
Unknown
Mass
Unknown
Launch date (UTC)
1999-05-10 (27 years ago)
Launch vehicle
Unknown
Launch site
Taiyaun Space Center, China (TSC)
Object type
Payload
Rocket body
Debris
Shape & HBR
Unknown shape, 0.1 m
Radar Cross Section
Small (<0.1 m²)

Expand to show TLE details & history
Last TLE update: 1 day ago

TLE from 1 day ago
0 CZ-4B DEB
1 37581U 99025EKE 26263.35915659  .00000522  00000-0  21687-3 0  9997
2 37581  98.6942 310.1560 0103665 298.6782 119.8510 14.27757012257075
Epoch: 2026-09-20T08:37Z
TLE epoch observation values (Epoch: 2026-09-20T08:37:11.129Z)
Latitude
58.54853°
Longitude
167.2048°
Altitude
846.718 km
Speed
7.415 km/s
True Right ascension
19h 43m 01s
True Declination
58° 23' 50"
Sunlit
Object was in daylight at epoch
Visualization orbit readout
Latitude
Unknown
Longitude
Unknown
Altitude
Unknown
Speed
Unknown
Apparent Right ascension
Unknown
Apparent Declination
Unknown
Sunlit
N/A
Visualization observer readout
Local Sidereal Time
04:05:48
Azimuth
Unknown
Elevation
Unknown
Doppler factor
Unknown
Orbital elements
Apogee altitude
870.76 km
Perigee altitude
722.01 km
Semi-major axis
7,174.522 km
Eccentricity
0.01037
Inclination
98.6942°
RAAN
310.156°
Arg. of periapsis
298.6782°
True anomaly
120.87465°
Mean anomaly
119.851°
Eccentric anomaly
120.36349°
Mean motion
3.57153 °/min
Orbital period
100.8 mins
BSTAR
0.00021687
Loading maneuver chart data...
Computing Atmospheric mass density...

Documentation

Showing up to 5 results
|